Regional Weather Roundup
Issued by NWS Upton, NY

Current Version | Previous Version | Text Only | Print | Product List | Glossary On
Versions: 1 2 3 4 5 6 7 8 9 10 11 12 13 14 15 16 17 18 19 20 21 22 23 24 25 26 27 28 29 30 31 32 33 34 35 36 37 38 39 40 41 42 43 44 45 46 47 48 49 50
000
ASUS41 KOKX 230018
RWROKX

REGIONAL WEATHER ROUNDUP
NATIONAL WEATHER SERVICE NEW YORK NY
800 PM EDT FRI MAY 22 2015

NOTE: "FAIR" INDICATES FEW OR NO CLOUDS BELOW 12,000 FEET WITH NO
SIGNIFICANT WEATHER AND/OR OBSTRUCTIONS TO VISIBILITY.

NYZ071-072-176-178-NJZ106-104-230100-
NEW YORK CITY METRO AREA


CITY           SKY/WX    TMP DP  RH WIND       PRES   REMARKS
CENTRAL PARK   PTCLDY    68  40  35 VRB3      30.01R
LAGUARDIA APRT MOCLDY    69  40  34 W12       29.98R
KENNEDY INTL   PTCLDY    69  40  34 W15       30.00R
NEWARK/LIBERTY MOCLDY    68  41  37 W14G24    30.00R
BRNX BOT. GARD   N/A     68  37  32 NW2       30.02R
TETERBORO      MOCLDY    68  40  35 W9G18     29.98R
$$

NYZ177-179-078>081-230100-
LONG ISLAND NEW YORK

CITY           SKY/WX    TMP DP  RH WIND       PRES   REMARKS
FARMINGDALE    PTCLDY    69  39  33 W13       29.98R
ISLIP          MOCLDY    68  41  37 NW7       29.97R
SHIRLEY        PTCLDY    67  41  38 NW5       29.98R
WESTHAMPTON    PTCLDY    65  39  38 NW6       29.98R
MONTAUK POINT    N/A     64  41  42 W8        29.98R
$$

NYZ052-065-067-230100-
HUDSON VALLEY

CITY           SKY/WX    TMP DP  RH WIND       PRES   REMARKS
WHITE PLAINS   MOCLDY    64  32  30 NW16G22   29.99R
NEWBURGH       NOT AVBL
MONTGOMERY     CLEAR     63  33  32 N8        30.02R
POUGHKEEPSIE   CLEAR     64  29  26 NW10      30.00R
ALBANY         PTCLDY    57  26  30 NW16G24   30.05R
$$

NJZ001-105-106-008-010-013-015-019>022-104-230100-
NEW JERSEY

CITY           SKY/WX    TMP DP  RH WIND       PRES   REMARKS
NEWARK/LIBERTY MOCLDY    68  41  37 W14G24    30.00R
TETERBORO      MOCLDY    68  40  35 W9G18     29.98R
CALDWELL       CLOUDY    67  42  40 W8        30.01R
MORRISTOWN     MOCLDY    66  45  45 W12G17    30.02R
SOMERVILLE     PTCLDY    67  40  37 NW5       30.00R
SUSSEX         CLEAR     63  33  32 VRB5      30.04R
ANDOVER          N/A     61  42  49 CALM      30.02R
TRENTON        CLEAR     67  43  41 W3        30.02R
MILLVILLE      PTCLDY    68  46  45 W8        30.06R
ATLANTIC CITY  PTCLDY    70  43  37 W9        30.04R
WRIGHTSTOWN    CLEAR     65  44  46 NW6       30.00R
TOMS RIVER     CLEAR     66  43  42 W3        30.03R
BELMAR         PTCLDY    66  41  39 W6        30.02R
$$

PAZ047>061-062-071-230100-
EASTERN PENNSYLVANIA

CITY           SKY/WX    TMP DP  RH WIND       PRES   REMARKS
PHILADELPHIA   PTCLDY    73  39  29 W13       30.05R
ALLENTOWN      PTCLDY    67  39  35 W10G21    30.02R
SCRANTON       CLEAR     61  34  36 N17G25    30.06R
$$

CTZ002-004>006-009-010-012-RIZ004-006-007-MAZ004-011-015-230100-
SOUTHERN NEW ENGLAND
 IN CT

CITY           SKY/WX    TMP DP  RH WIND       PRES   REMARKS
BRADLEY INTL   PTCLDY    63  28  26 NW14G21   29.99R
HARTFORD       CLEAR     64  28  25 N13G21    29.99R
DANBURY        CLEAR     63  26  24 N9G16     30.01R
WTRBRY/OXFORD  CLEAR     63  28  27 N12       30.01R
BRIDGEPORT     CLEAR     68  29  23 NW13G20   29.98R
MERIDEN        CLEAR     66  27  23 NW12      29.99R
NEW HAVEN      PTCLDY    66  31  27 NW10G18   29.98R
CHESTER        FAIR      63  32  31 NW5       29.99R
GROTON         CLEAR     65  32  29 NW12      29.96R
WILLIMANTIC    CLEAR     64  27  24 NW12G20   29.98R

 IN RI

CITY           SKY/WX    TMP DP  RH WIND       PRES   REMARKS
PROVIDENCE     PTCLDY    65  26  23 NW13G25   29.96R
BLOCK ISLAND   CLEAR     57  43  58 W9        29.96R
WESTERLY       CLEAR     66  33  29 NW7       29.96R

 IN MA

CITY           SKY/WX    TMP DP  RH WIND       PRES   REMARKS
BOSTON         PTCLDY    66  24  20 W20G26    29.93R
WORCESTER      CLEAR     59  17  19 W22G36    29.97R
WESTFIELD      CLEAR     62  26  25 NW12G22   30.00R
PROVINCETOWN   CLEAR     61  45  55 W14       29.91R
NANTUCKET      CLEAR     57  49  74 W15       29.93R
$$

ANZ330-335-338-340-345-350-353-355-230100-
COASTAL MARINE OBSERVATIONS


STATION/POSITION TIME  SKY/WX   TEMP    WIND        PRES    VSBY  WAVE
                                AIR SEA DIR/SP/G                  HT/PER
                 (UTC)          (F)     (DEG/KT/KT) (MB)    (MI)  (FT/S)
NY HARB ENTRANCE 2350            61 57  280/  6/  8 1015.6          2/ 8
4S FIRE IS       2303               54                N/A           2/ 7
20S FIRE ISLAND  2350            62 56  290/ 12/ 12 1015.6          2/ 7
GREAT SOUTH BAY  2330            68 64  290/  8/ 12   N/A
23SW MTP         2350            57 53  240/ 12/ 14 1014.6          3/ 7
HUDSON CANYON    NOT AVBL
KINGS POINT      2300            68 55  290/ 13/ 16 1013.9
CENTRAL LI SOUND 0000            62 53  290/ 14/ 16   N/A
EASTERN LI SOUND 2300            62     280/ 12/ 16   N/A
ROBBINS REEF     2300            68     280/ 18/ 21 1013.9
$$


>>>>>>>>>>>>>>>>>>>>>>>>>>>> KEY <<<<<<<<<<<<<<<<<<<<<<<<<<<
>                                                          <
>     SKY/WX - SKY CONDITION/PRESENT WEATHER               <
>     TMP    - TEMPERATURE IN FAHRENHEIT                   <
>     DP     - DEWPOINT IN FAHRENHEIT                      <
>     RH     - RELATIVE HUMIDITY IN PERCENT                <
>     WIND   - DIRECTION AND SPEED IN MPH                  <
>     PRES   - MEAN SEA LEVEL PRESSURE IN INCHES OF HG     <
>     WCI    - WIND CHILL INDEX                            <
>     VSB    - VISIBILITY IN MILES                         <
>     HX     - HEAT INDEX                                  <
>     TC     - TEMPERATURE IN CELSIUS                      <
>     VRB    - VARIABLE WIND DIRECTION                     <
>                                                          <
>>>>>>>>>>>>>>>>>>>>>>>>>>>> KEY <<<<<<<<<<<<<<<<<<<<<<<<<<<




USA.gov is the U.S. government's official web portal to all federal, state and local government web resources and services.